Time,TemperatureF,DewpointF,PressureIn,WindDirection,WindDirectionDegrees,WindSpeedMPH,WindSpeedGustMPH,Humidity,HourlyPrecipIn,Conditions,Clouds,dailyrainin,SoftwareType,DateUTC
2013-05-11 00:00:00,50.7,47.2,30.05,North,0,0.0,0.0,88,0.00,,,0.00,WUHU21623XXSP,2013-05-11 05:00:00,
2013-05-11 00:05:00,50.5,47.0,30.05,North,0,0.0,0.0,88,0.00,,,0.00,WUHU21623XXSP,2013-05-11 05:05:00,
2013-05-11 00:10:00,50.4,46.9,30.05,North,0,0.0,0.0,88,0.00,,,0.00,WUHU21623XXSP,2013-05-11 05:10:00,
2013-05-11 00:15:00,50.4,46.9,30.05,North,0,0.0,0.0,88,0.00,,,0.00,WUHU21623XXSP,2013-05-11 05:15:00,
2013-05-11 00:20:00,50.2,46.7,30.05,North,0,0.0,0.0,88,0.00,,,0.00,WUHU21623XXSP,2013-05-11 05:20:00,
2013-05-11 00:25:00,50.2,46.7,30.05,North,0,0.0,0.0,88,0.00,,,0.00,WUHU21623XXSP,2013-05-11 05:25:00,
2013-05-11 00:30:00,50.2,46.7,30.05,North,0,0.0,0.0,88,0.00,,,0.00,WUHU21623XXSP,2013-05-11 05:30:00,
2013-05-11 00:35:00,50.2,46.7,30.05,North,0,0.0,0.0,88,0.00,,,0.00,WUHU21623XXSP,2013-05-11 05:35:00,
2013-05-11 00:45:00,49.6,46.2,30.05,North,0,0.0,0.0,88,0.00,,,0.00,WUHU21623XXSP,2013-05-11 05:45:00,
2013-05-11 00:50:00,49.6,46.2,30.05,North,0,0.0,0.0,88,0.00,,,0.00,WUHU21623XXSP,2013-05-11 05:50:00,
2013-05-11 00:55:00,49.3,46.1,30.06,North,0,0.0,0.0,89,0.00,,,0.00,WUHU21623XXSP,2013-05-11 05:55:00,
2013-05-11 01:00:00,49.3,46.1,30.05,North,0,0.0,0.0,89,0.00,,,0.00,WUHU21623XXSP,2013-05-11 06:00:00,
2013-05-11 01:05:00,49.3,46.1,30.06,North,0,0.0,0.0,89,0.00,,,0.00,WUHU21623XXSP,2013-05-11 06:05:00,
2013-05-11 01:10:00,49.1,46.0,30.06,North,0,0.0,0.0,89,0.00,,,0.00,WUHU21623XXSP,2013-05-11 06:10:00,
2013-05-11 01:15:00,49.1,46.0,30.06,North,0,0.0,0.0,89,0.00,,,0.00,WUHU21623XXSP,2013-05-11 06:15:00,
2013-05-11 01:20:00,49.1,46.0,30.06,North,0,0.0,0.0,89,0.00,,,0.00,WUHU21623XXSP,2013-05-11 06:20:00,
2013-05-11 01:25:00,49.1,46.0,30.06,North,0,0.0,0.0,89,0.00,,,0.00,WUHU21623XXSP,2013-05-11 06:25:00,
2013-05-11 01:30:00,49.1,46.0,30.06,North,0,0.0,0.0,89,0.00,,,0.00,WUHU21623XXSP,2013-05-11 06:30:00,
2013-05-11 01:35:00,48.9,45.8,30.06,North,0,0.0,0.0,89,0.00,,,0.00,WUHU21623XXSP,2013-05-11 06:35:00,
2013-05-11 01:40:00,48.9,45.8,30.06,North,0,0.0,0.0,89,0.00,,,0.00,WUHU21623XXSP,2013-05-11 06:40:00,
2013-05-11 01:45:00,48.9,45.8,30.06,North,0,0.0,0.0,89,0.00,,,0.00,WUHU21623XXSP,2013-05-11 06:45:00,
2013-05-11 01:50:00,48.9,45.8,30.06,North,0,0.0,0.0,89,0.00,,,0.00,WUHU21623XXSP,2013-05-11 06:50:00,
2013-05-11 01:55:00,48.7,45.7,30.06,North,0,0.0,0.0,89,0.00,,,0.00,WUHU21623XXSP,2013-05-11 06:55:00,
2013-05-11 02:00:00,48.6,45.5,30.05,North,0,0.0,0.0,89,0.00,,,0.00,WUHU21623XXSP,2013-05-11 07:00:00,
2013-05-11 02:05:00,48.6,45.5,30.05,North,0,0.0,0.0,89,0.00,,,0.00,WUHU21623XXSP,2013-05-11 07:05:00,
2013-05-11 02:10:00,48.4,45.3,30.05,North,0,0.0,0.0,89,0.00,,,0.00,WUHU21623XXSP,2013-05-11 07:10:00,
2013-05-11 02:15:00,48.4,45.3,30.05,North,0,0.0,0.0,89,0.00,,,0.00,WUHU21623XXSP,2013-05-11 07:15:00,
2013-05-11 02:20:00,48.2,45.2,30.05,North,0,0.0,0.0,89,0.00,,,0.00,WUHU21623XXSP,2013-05-11 07:20:00,
2013-05-11 02:25:00,48.2,45.2,30.05,North,0,0.0,0.0,89,0.00,,,0.00,WUHU21623XXSP,2013-05-11 07:25:00,
2013-05-11 02:30:00,48.2,45.2,30.05,North,0,0.0,0.0,89,0.00,,,0.00,WUHU21623XXSP,2013-05-11 07:30:00,
2013-05-11 02:35:00,48.2,45.2,30.05,North,0,0.0,0.0,89,0.00,,,0.00,WUHU21623XXSP,2013-05-11 07:35:00,
2013-05-11 02:40:00,48.2,45.2,30.06,North,0,0.0,0.0,89,0.00,,,0.00,WUHU21623XXSP,2013-05-11 07:40:00,
2013-05-11 02:45:00,48.2,45.2,30.06,North,0,0.0,0.0,89,0.00,,,0.00,WUHU21623XXSP,2013-05-11 07:45:00,
2013-05-11 02:55:00,47.8,44.8,30.06,North,0,0.0,0.0,89,0.00,,,0.00,WUHU21623XXSP,2013-05-11 07:55:00,
2013-05-11 03:00:00,47.8,44.8,30.06,North,0,0.0,0.0,89,0.00,,,0.00,WUHU21623XXSP,2013-05-11 08:00:00,
2013-05-11 03:05:00,47.7,44.6,30.06,North,0,0.0,0.0,89,0.00,,,0.00,WUHU21623XXSP,2013-05-11 08:05:00,
2013-05-11 03:10:00,47.7,44.6,30.05,North,0,0.0,0.0,89,0.00,,,0.00,WUHU21623XXSP,2013-05-11 08:10:00,
2013-05-11 03:15:00,47.5,44.5,30.05,North,0,0.0,0.0,89,0.00,,,0.00,WUHU21623XXSP,2013-05-11 08:15:00,
2013-05-11 03:20:00,47.5,44.5,30.05,North,0,0.0,0.0,89,0.00,,,0.00,WUHU21623XXSP,2013-05-11 08:20:00,
2013-05-11 03:25:00,47.5,44.8,30.05,North,0,0.0,0.0,90,0.00,,,0.00,WUHU21623XXSP,2013-05-11 08:25:00,
2013-05-11 03:30:00,47.5,44.8,30.05,North,0,0.0,0.0,90,0.00,,,0.00,WUHU21623XXSP,2013-05-11 08:30:00,
2013-05-11 03:35:00,47.3,44.6,30.05,North,0,0.0,0.0,90,0.00,,,0.00,WUHU21623XXSP,2013-05-11 08:35:00,
2013-05-11 03:40:00,47.3,44.6,30.05,North,0,0.0,0.0,90,0.00,,,0.00,WUHU21623XXSP,2013-05-11 08:40:00,
2013-05-11 03:45:00,47.3,44.6,30.05,North,0,0.0,0.0,90,0.00,,,0.00,WUHU21623XXSP,2013-05-11 08:45:00,
2013-05-11 03:50:00,47.3,44.6,30.04,North,0,0.0,0.0,90,0.00,,,0.00,WUHU21623XXSP,2013-05-11 08:50:00,
2013-05-11 03:55:00,47.3,44.6,30.04,North,0,0.0,0.0,90,0.00,,,0.00,WUHU21623XXSP,2013-05-11 08:55:00,
2013-05-11 04:00:00,47.3,44.6,30.04,North,0,0.0,0.0,90,0.00,,,0.00,WUHU21623XXSP,2013-05-11 09:00:00,
2013-05-11 04:05:00,47.3,44.6,30.05,North,0,0.0,0.0,90,0.00,,,0.00,WUHU21623XXSP,2013-05-11 09:05:00,
2013-05-11 04:10:00,47.1,44.4,30.04,North,0,0.0,0.0,90,0.00,,,0.00,WUHU21623XXSP,2013-05-11 09:10:00,
2013-05-11 04:15:00,47.1,44.4,30.04,North,0,0.0,0.0,90,0.00,,,0.00,WUHU21623XXSP,2013-05-11 09:15:00,
2013-05-11 04:20:00,47.1,44.4,30.04,North,0,0.0,0.0,90,0.00,,,0.00,WUHU21623XXSP,2013-05-11 09:20:00,
2013-05-11 04:25:00,47.3,44.6,30.04,North,0,0.0,0.0,90,0.00,,,0.00,WUHU21623XXSP,2013-05-11 09:25:00,
2013-05-11 04:30:00,47.1,44.4,30.04,North,0,0.0,0.0,90,0.00,,,0.00,WUHU21623XXSP,2013-05-11 09:30:00,
2013-05-11 04:35:00,47.1,44.4,30.04,North,0,0.0,0.0,90,0.00,,,0.00,WUHU21623XXSP,2013-05-11 09:35:00,
2013-05-11 04:40:00,47.1,44.4,30.03,North,0,0.0,0.0,90,0.00,,,0.00,WUHU21623XXSP,2013-05-11 09:40:00,
2013-05-11 04:45:00,47.1,44.4,30.04,North,0,0.0,0.0,90,0.00,,,0.00,WUHU21623XXSP,2013-05-11 09:45:00,
2013-05-11 04:50:00,47.1,44.4,30.03,North,0,0.0,0.0,90,0.00,,,0.00,WUHU21623XXSP,2013-05-11 09:50:00,
2013-05-11 04:55:00,47.1,44.4,30.03,North,0,0.0,0.0,90,0.00,,,0.00,WUHU21623XXSP,2013-05-11 09:55:00,
2013-05-11 05:00:00,47.1,44.4,30.03,North,0,0.0,0.0,90,0.00,,,0.00,WUHU21623XXSP,2013-05-11 10:00:00,
2013-05-11 05:05:00,47.1,44.4,30.03,North,0,0.0,0.0,90,0.00,,,0.00,WUHU21623XXSP,2013-05-11 10:05:00,
2013-05-11 05:13:00,47.3,44.6,30.03,North,0,0.0,0.0,90,0.00,,,0.00,WUHU21623XXSP,2013-05-11 10:13:00,
2013-05-11 05:18:00,47.3,44.9,30.03,North,0,0.0,0.0,91,0.00,,,0.00,WUHU21623XXSP,2013-05-11 10:18:00,
2013-05-11 05:23:00,47.5,44.8,30.03,North,0,0.0,0.0,91,0.00,,,0.00,WUHU21623XXSP,2013-05-11 10:23:00,
2013-05-11 05:28:00,47.5,45.0,30.03,North,0,0.0,0.0,91,0.00,,,0.00,WUHU21623XXSP,2013-05-11 10:28:00,
2013-05-11 05:33:00,47.5,45.0,30.04,North,0,0.0,0.0,91,0.00,,,0.00,WUHU21623XXSP,2013-05-11 10:33:00,
2013-05-11 05:38:00,47.7,45.2,30.04,North,0,0.0,0.0,91,0.00,,,0.00,WUHU21623XXSP,2013-05-11 10:38:00,
2013-05-11 05:43:00,47.8,45.2,30.03,North,0,0.0,0.0,91,0.00,,,0.00,WUHU21623XXSP,2013-05-11 10:43:00,
2013-05-11 05:48:00,47.8,45.4,30.03,North,0,0.0,0.0,91,0.00,,,0.00,WUHU21623XXSP,2013-05-11 10:48:00,
2013-05-11 05:53:00,47.8,45.4,30.03,North,0,0.0,0.0,91,0.00,,,0.00,WUHU21623XXSP,2013-05-11 10:53:00,
2013-05-11 05:58:00,47.8,45.4,30.03,North,0,0.0,0.0,91,0.00,,,0.00,WUHU21623XXSP,2013-05-11 10:58:00,
2013-05-11 06:03:00,47.8,45.4,30.03,North,0,0.0,0.0,91,0.00,,,0.00,WUHU21623XXSP,2013-05-11 11:03:00,
2013-05-11 06:08:00,47.8,45.4,30.03,North,0,0.0,0.0,91,0.00,,,0.00,WUHU21623XXSP,2013-05-11 11:08:00,
2013-05-11 06:13:00,47.8,45.4,30.03,North,0,0.0,0.0,91,0.00,,,0.00,WUHU21623XXSP,2013-05-11 11:13:00,
2013-05-11 06:18:00,47.8,45.4,30.03,North,0,0.0,0.0,91,0.00,,,0.00,WUHU21623XXSP,2013-05-11 11:18:00,
2013-05-11 06:23:00,47.8,45.4,30.03,North,0,0.0,0.0,91,0.00,,,0.00,WUHU21623XXSP,2013-05-11 11:23:00,
2013-05-11 06:28:00,47.8,45.4,30.03,North,0,0.0,0.0,91,0.00,,,0.00,WUHU21623XXSP,2013-05-11 11:28:00,
2013-05-11 06:33:00,48.0,45.6,30.04,North,0,0.0,0.0,91,0.00,,,0.00,WUHU21623XXSP,2013-05-11 11:33:00,
2013-05-11 06:38:00,48.0,45.6,30.04,North,0,0.0,0.0,91,0.00,,,0.00,WUHU21623XXSP,2013-05-11 11:38:00,
2013-05-11 06:43:00,48.4,45.9,30.04,North,0,0.0,0.0,91,0.00,,,0.00,WUHU21623XXSP,2013-05-11 11:43:00,
2013-05-11 06:48:00,48.7,46.1,30.04,North,0,0.0,0.0,91,0.00,,,0.00,WUHU21623XXSP,2013-05-11 11:48:00,
2013-05-11 06:53:00,49.8,47.5,30.04,North,0,0.0,0.0,92,0.00,,,0.00,WUHU21623XXSP,2013-05-11 11:53:00,
2013-05-11 06:58:00,50.9,47.9,30.04,North,0,0.0,0.0,92,0.00,,,0.00,WUHU21623XXSP,2013-05-11 11:58:00,
2013-05-11 07:03:00,52.5,50.5,30.04,North,0,0.0,0.0,93,0.00,,,0.00,WUHU21623XXSP,2013-05-11 12:03:00,
2013-05-11 07:08:00,56.1,53.0,30.04,North,0,0.0,0.0,93,0.00,,,0.00,WUHU21623XXSP,2013-05-11 12:08:00,
2013-05-11 07:13:00,58.5,55.7,30.03,North,0,0.0,0.0,94,0.00,,,0.00,WUHU21623XXSP,2013-05-11 12:13:00,
2013-05-11 07:18:00,60.6,57.8,30.03,North,0,0.0,0.0,94,0.00,,,0.00,WUHU21623XXSP,2013-05-11 12:18:00,
2013-05-11 07:23:00,63.1,60.4,30.03,North,0,0.0,0.0,92,0.00,,,0.00,WUHU21623XXSP,2013-05-11 12:23:00,
2013-05-11 07:28:00,63.7,60.5,30.04,North,0,0.0,0.0,86,0.00,,,0.00,WUHU21623XXSP,2013-05-11 12:28:00,
2013-05-11 07:33:00,64.0,58.4,30.04,North,0,0.0,0.0,82,0.00,,,0.00,WUHU21623XXSP,2013-05-11 12:33:00,
2013-05-11 07:38:00,63.3,56.8,30.04,North,0,0.0,0.0,78,0.00,,,0.00,WUHU21623XXSP,2013-05-11 12:38:00,
2013-05-11 07:43:00,63.3,56.3,30.04,North,0,0.0,0.0,78,0.00,,,0.00,WUHU21623XXSP,2013-05-11 12:43:00,
2013-05-11 07:48:00,63.7,56.1,30.04,North,0,0.0,0.0,76,0.00,,,0.00,WUHU21623XXSP,2013-05-11 12:48:00,
2013-05-11 07:53:00,64.8,56.6,30.04,North,0,0.0,0.0,75,0.00,,,0.00,WUHU21623XXSP,2013-05-11 12:53:00,
2013-05-11 07:58:00,65.8,56.6,30.04,North,0,0.0,0.0,74,0.00,,,0.00,WUHU21623XXSP,2013-05-11 12:58:00,
2013-05-11 08:03:00,67.8,58.0,30.03,North,0,0.0,0.0,70,0.00,,,0.00,WUHU21623XXSP,2013-05-11 13:03:00,
2013-05-11 08:08:00,69.4,58.6,30.03,North,0,0.0,0.0,68,0.00,,,0.00,WUHU21623XXSP,2013-05-11 13:08:00,
2013-05-11 08:13:00,70.3,58.5,30.03,North,0,0.0,0.0,66,0.00,,,0.00,WUHU21623XXSP,2013-05-11 13:13:00,
2013-05-11 08:18:00,70.0,56.8,30.03,North,0,0.0,0.0,63,0.00,,,0.00,WUHU21623XXSP,2013-05-11 13:18:00,
2013-05-11 08:23:00,68.7,56.3,30.03,North,0,0.0,0.0,63,0.00,,,0.00,WUHU21623XXSP,2013-05-11 13:23:00,
2013-05-11 08:28:00,67.3,55.3,30.03,North,0,0.0,0.0,64,0.00,,,0.00,WUHU21623XXSP,2013-05-11 13:28:00,
2013-05-11 08:34:00,65.8,54.1,30.03,North,0,0.0,0.0,66,0.00,,,0.00,WUHU21623XXSP,2013-05-11 13:34:00,
2013-05-11 08:39:00,65.1,53.8,30.03,North,0,0.0,0.0,66,0.00,,,0.00,WUHU21623XXSP,2013-05-11 13:39:00,
2013-05-11 08:44:00,64.9,54.1,30.04,North,0,0.0,0.0,68,0.00,,,0.00,WUHU21623XXSP,2013-05-11 13:44:00,
2013-05-11 08:49:00,64.6,54.2,30.04,North,0,0.0,0.0,69,0.00,,,0.00,WUHU21623XXSP,2013-05-11 13:49:00,
2013-05-11 08:54:00,64.8,54.4,30.04,North,0,0.0,0.0,69,0.00,,,0.00,WUHU21623XXSP,2013-05-11 13:54:00,
2013-05-11 08:59:00,64.9,54.6,30.04,North,0,0.0,0.0,69,0.00,,,0.00,WUHU21623XXSP,2013-05-11 13:59:00,
2013-05-11 09:04:00,65.1,54.3,30.04,North,0,0.0,0.0,68,0.00,,,0.00,WUHU21623XXSP,2013-05-11 14:04:00,
2013-05-11 09:09:00,65.3,54.0,30.04,North,0,0.0,0.0,67,0.00,,,0.00,WUHU21623XXSP,2013-05-11 14:09:00,
2013-05-11 09:14:00,64.9,53.4,30.04,North,0,0.0,0.0,66,0.00,,,0.00,WUHU21623XXSP,2013-05-11 14:14:00,
2013-05-11 09:19:00,64.8,53.1,30.05,North,0,0.0,0.0,66,0.00,,,0.00,WUHU21623XXSP,2013-05-11 14:19:00,
2013-05-11 09:24:00,64.8,53.1,30.05,North,0,0.0,0.0,66,0.00,,,0.00,WUHU21623XXSP,2013-05-11 14:24:00,
2013-05-11 09:29:00,64.9,53.3,30.04,North,0,0.0,0.0,66,0.00,,,0.00,WUHU21623XXSP,2013-05-11 14:29:00,
2013-05-11 09:34:00,64.9,53.3,30.04,North,0,0.0,0.0,66,0.00,,,0.00,WUHU21623XXSP,2013-05-11 14:34:00,
2013-05-11 09:39:00,65.1,53.4,30.04,North,0,0.0,0.0,66,0.00,,,0.00,WUHU21623XXSP,2013-05-11 14:39:00,
2013-05-11 09:44:00,65.1,53.4,30.04,North,0,0.0,0.0,66,0.00,,,0.00,WUHU21623XXSP,2013-05-11 14:44:00,
2013-05-11 09:49:00,65.1,53.0,30.04,North,0,0.0,0.0,66,0.00,,,0.00,WUHU21623XXSP,2013-05-11 14:49:00,
2013-05-11 09:54:00,65.3,52.8,30.04,North,0,0.0,0.0,64,0.00,,,0.00,WUHU21623XXSP,2013-05-11 14:54:00,
2013-05-11 09:59:00,65.3,52.3,30.04,North,0,0.0,0.0,63,0.00,,,0.00,WUHU21623XXSP,2013-05-11 14:59:00,
2013-05-11 10:04:00,65.5,52.1,30.05,North,0,0.0,0.0,62,0.00,,,0.00,WUHU21623XXSP,2013-05-11 15:04:00,
2013-05-11 10:09:00,65.5,52.1,30.05,North,0,0.0,0.0,62,0.00,,,0.00,WUHU21623XXSP,2013-05-11 15:09:00,
2013-05-11 10:14:00,65.5,52.1,30.06,North,0,0.0,0.0,62,0.00,,,0.00,WUHU21623XXSP,2013-05-11 15:14:00,
2013-05-11 10:19:00,65.5,51.3,30.06,North,0,0.0,0.0,60,0.00,,,0.00,WUHU21623XXSP,2013-05-11 15:19:00,
2013-05-11 10:24:00,65.3,51.1,30.06,North,0,0.0,0.0,60,0.00,,,0.00,WUHU21623XXSP,2013-05-11 15:24:00,
2013-05-11 10:29:00,65.3,50.6,30.06,North,0,0.0,0.0,59,0.00,,,0.00,WUHU21623XXSP,2013-05-11 15:29:00,
2013-05-11 10:34:00,65.3,50.8,30.07,North,0,0.0,0.0,54,0.00,,,0.00,WUHU21623XXSP,2013-05-11 15:34:00,
2013-05-11 10:39:00,65.3,48.2,30.07,North,0,0.0,0.0,54,0.00,,,0.00,WUHU21623XXSP,2013-05-11 15:39:00,
2013-05-11 10:44:00,65.3,48.2,30.07,North,0,0.0,0.0,54,0.00,,,0.00,WUHU21623XXSP,2013-05-11 15:44:00,
2013-05-11 10:49:00,65.3,48.2,30.07,North,0,0.0,0.0,56,0.00,,,0.00,WUHU21623XXSP,2013-05-11 15:49:00,
2013-05-11 10:54:00,65.5,48.8,30.07,North,0,0.0,0.0,55,0.00,,,0.00,WUHU21623XXSP,2013-05-11 15:54:00,
2013-05-11 10:59:00,65.8,48.8,30.07,North,0,0.0,0.0,54,0.00,,,0.00,WUHU21623XXSP,2013-05-11 15:59:00,
2013-05-11 11:04:00,65.8,47.2,30.07,North,0,0.0,0.0,51,0.00,,,0.00,WUHU21623XXSP,2013-05-11 16:04:00,
2013-05-11 11:09:00,65.7,46.8,30.08,North,0,0.0,0.0,50,0.00,,,0.00,WUHU21623XXSP,2013-05-11 16:09:00,
2013-05-11 11:14:00,65.5,44.8,30.08,North,0,0.0,0.0,47,0.00,,,0.00,WUHU21623XXSP,2013-05-11 16:14:00,
2013-05-11 11:19:00,65.5,44.6,30.08,North,0,0.0,0.0,47,0.00,,,0.00,WUHU21623XXSP,2013-05-11 16:19:00,
2013-05-11 11:24:00,65.3,43.3,30.08,North,0,0.0,0.0,45,0.00,,,0.00,WUHU21623XXSP,2013-05-11 16:24:00,
2013-05-11 11:29:00,65.3,43.9,30.09,North,0,0.0,0.0,46,0.00,,,0.00,WUHU21623XXSP,2013-05-11 16:29:00,
2013-05-11 11:34:00,65.8,43.3,30.08,North,0,0.0,0.0,45,0.00,,,0.00,WUHU21623XXSP,2013-05-11 16:34:00,
2013-05-11 11:39:00,65.8,43.2,30.09,North,0,0.0,0.0,44,0.00,,,0.00,WUHU21623XXSP,2013-05-11 16:39:00,
2013-05-11 11:44:00,65.3,43.2,30.09,North,0,0.0,0.0,40,0.00,,,0.00,WUHU21623XXSP,2013-05-11 16:44:00,
2013-05-11 11:49:00,65.1,40.8,30.09,North,0,0.0,0.0,41,0.00,,,0.00,WUHU21623XXSP,2013-05-11 16:49:00,
2013-05-11 11:54:00,65.1,39.5,30.09,North,0,0.0,0.0,39,0.00,,,0.00,WUHU21623XXSP,2013-05-11 16:54:00,
2013-05-11 11:59:00,64.9,39.2,30.09,North,0,0.0,0.0,39,0.00,,,0.00,WUHU21623XXSP,2013-05-11 16:59:00,
2013-05-11 12:04:00,64.9,40.0,30.10,North,0,0.0,0.0,42,0.00,,,0.00,WUHU21623XXSP,2013-05-11 17:04:00,
2013-05-11 12:09:00,64.9,40.0,30.10,North,0,0.0,0.0,40,0.00,,,0.00,WUHU21623XXSP,2013-05-11 17:09:00,
2013-05-11 12:14:00,64.9,40.0,30.09,North,0,0.0,0.0,42,0.00,,,0.00,WUHU21623XXSP,2013-05-11 17:14:00,
2013-05-11 12:19:00,64.9,40.0,30.10,North,0,0.0,0.0,41,0.00,,,0.00,WUHU21623XXSP,2013-05-11 17:19:00,
2013-05-11 12:24:00,64.9,40.6,30.10,North,0,0.0,0.0,40,0.00,,,0.00,WUHU21623XXSP,2013-05-11 17:24:00,
2013-05-11 12:29:00,65.1,40.2,30.10,North,0,0.0,0.0,42,0.00,,,0.00,WUHU21623XXSP,2013-05-11 17:29:00,
2013-05-11 12:34:00,64.9,39.3,30.10,North,0,0.0,0.0,39,0.00,,,0.00,WUHU21623XXSP,2013-05-11 17:34:00,
2013-05-11 12:39:00,64.9,39.3,30.10,North,0,0.0,0.0,38,0.00,,,0.00,WUHU21623XXSP,2013-05-11 17:39:00,
2013-05-11 12:44:00,64.4,38.8,30.10,North,0,0.0,0.0,39,0.00,,,0.00,WUHU21623XXSP,2013-05-11 17:44:00,
2013-05-11 12:49:00,64.6,40.3,30.10,North,0,0.0,0.0,41,0.00,,,0.00,WUHU21623XXSP,2013-05-11 17:49:00,
2013-05-11 12:54:00,64.6,40.3,30.10,North,0,0.0,0.0,40,0.00,,,0.00,WUHU21623XXSP,2013-05-11 17:54:00,
2013-05-11 12:59:00,64.9,40.6,30.10,North,0,0.0,0.0,41,0.00,,,0.00,WUHU21623XXSP,2013-05-11 17:59:00,
2013-05-11 13:04:00,64.9,39.3,30.10,North,0,0.0,0.0,39,0.00,,,0.00,WUHU21623XXSP,2013-05-11 18:04:00,
2013-05-11 13:09:00,64.9,39.3,30.10,North,0,0.0,0.0,38,0.00,,,0.00,WUHU21623XXSP,2013-05-11 18:09:00,
2013-05-11 13:14:00,64.8,37.7,30.11,North,0,0.0,0.0,37,0.00,,,0.00,WUHU21623XXSP,2013-05-11 18:14:00,
2013-05-11 13:19:00,64.8,39.2,30.10,North,0,0.0,0.0,39,0.00,,,0.00,WUHU21623XXSP,2013-05-11 18:19:00,
2013-05-11 13:24:00,64.9,39.2,30.11,North,0,0.0,0.0,39,0.00,,,0.00,WUHU21623XXSP,2013-05-11 18:24:00,
2013-05-11 13:29:00,64.9,39.3,30.10,North,0,0.0,0.0,38,0.00,,,0.00,WUHU21623XXSP,2013-05-11 18:29:00,
2013-05-11 13:34:00,64.8,38.4,30.11,North,0,0.0,0.0,38,0.00,,,0.00,WUHU21623XXSP,2013-05-11 18:34:00,
2013-05-11 13:39:00,64.8,38.4,30.11,North,0,0.0,0.0,38,0.00,,,0.00,WUHU21623XXSP,2013-05-11 18:39:00,
2013-05-11 13:44:00,65.1,38.8,30.11,North,0,0.0,0.0,39,0.00,,,0.00,WUHU21623XXSP,2013-05-11 18:44:00,
2013-05-11 13:49:00,65.1,38.0,30.11,North,0,0.0,0.0,39,0.00,,,0.00,WUHU21623XXSP,2013-05-11 18:49:00,
2013-05-11 13:54:00,65.1,39.5,30.11,North,0,0.0,0.0,39,0.00,,,0.00,WUHU21623XXSP,2013-05-11 18:54:00,
2013-05-11 13:59:00,64.9,38.6,30.12,North,0,0.0,0.0,38,0.00,,,0.00,WUHU21623XXSP,2013-05-11 18:59:00,
2013-05-11 14:04:00,65.1,38.8,30.12,North,0,0.0,0.0,38,0.00,,,0.00,WUHU21623XXSP,2013-05-11 19:04:00,
2013-05-11 14:09:00,65.1,38.8,30.12,North,0,0.0,0.0,38,0.00,,,0.00,WUHU21623XXSP,2013-05-11 19:09:00,
2013-05-11 14:14:00,65.1,38.8,30.12,North,0,0.0,0.0,38,0.00,,,0.00,WUHU21623XXSP,2013-05-11 19:14:00,
2013-05-11 14:19:00,64.8,38.4,30.12,North,0,0.0,0.0,38,0.00,,,0.00,WUHU21623XXSP,2013-05-11 19:19:00,
2013-05-11 14:24:00,65.1,40.2,30.12,North,0,0.0,0.0,39,0.00,,,0.00,WUHU21623XXSP,2013-05-11 19:24:00,
2013-05-11 14:29:00,65.1,39.5,30.12,North,0,0.0,0.0,39,0.00,,,0.00,WUHU21623XXSP,2013-05-11 19:29:00,
2013-05-11 14:34:00,65.1,39.5,30.12,North,0,0.0,0.0,37,0.00,,,0.00,WUHU21623XXSP,2013-05-11 19:34:00,
2013-05-11 14:39:00,64.9,38.6,30.12,North,0,0.0,0.0,38,0.00,,,0.00,WUHU21623XXSP,2013-05-11 19:39:00,
2013-05-11 14:44:00,65.1,40.2,30.12,North,0,0.0,0.0,40,0.00,,,0.00,WUHU21623XXSP,2013-05-11 19:44:00,
2013-05-11 14:49:00,65.3,38.9,30.12,North,0,0.0,0.0,38,0.00,,,0.00,WUHU21623XXSP,2013-05-11 19:49:00,
2013-05-11 14:54:00,65.3,38.9,30.12,North,0,0.0,0.0,38,0.00,,,0.00,WUHU21623XXSP,2013-05-11 19:54:00,
2013-05-11 14:59:00,64.9,37.2,30.12,North,0,0.0,0.0,36,0.00,,,0.00,WUHU21623XXSP,2013-05-11 19:59:00,
2013-05-11 15:04:00,64.6,38.3,30.13,North,0,0.0,0.0,38,0.00,,,0.00,WUHU21623XXSP,2013-05-11 20:04:00,
2013-05-11 15:09:00,64.6,37.6,30.13,North,0,0.0,0.0,37,0.00,,,0.00,WUHU21623XXSP,2013-05-11 20:09:00,
2013-05-11 15:14:00,64.6,37.6,30.13,North,0,0.0,0.0,37,0.00,,,0.00,WUHU21623XXSP,2013-05-11 20:14:00,
2013-05-11 15:19:00,64.6,37.6,30.12,North,0,0.0,0.0,36,0.00,,,0.00,WUHU21623XXSP,2013-05-11 20:19:00,
2013-05-11 15:24:00,64.4,36.7,30.12,North,0,0.0,0.0,38,0.00,,,0.00,WUHU21623XXSP,2013-05-11 20:24:00,
2013-05-11 15:29:00,64.6,37.6,30.13,North,0,0.0,0.0,37,0.00,,,0.00,WUHU21623XXSP,2013-05-11 20:29:00,
2013-05-11 15:34:00,64.6,37.6,30.13,North,0,0.0,0.0,37,0.00,,,0.00,WUHU21623XXSP,2013-05-11 20:34:00,
2013-05-11 15:39:00,64.6,37.6,30.13,North,0,0.0,0.0,37,0.00,,,0.00,WUHU21623XXSP,2013-05-11 20:39:00,
2013-05-11 15:44:00,64.6,37.6,30.13,North,0,0.0,0.0,37,0.00,,,0.00,WUHU21623XXSP,2013-05-11 20:44:00,
2013-05-11 15:53:00,65.1,38.8,30.13,North,0,0.0,0.0,38,0.00,,,0.00,WUHU21623XXSP,2013-05-11 20:53:00,
2013-05-11 15:58:00,65.1,38.0,30.13,North,0,0.0,0.0,37,0.00,,,0.00,WUHU21623XXSP,2013-05-11 20:58:00,
2013-05-11 16:03:00,65.1,38.0,30.13,North,0,0.0,0.0,37,0.00,,,0.00,WUHU21623XXSP,2013-05-11 21:03:00,
2013-05-11 16:08:00,65.1,38.0,30.13,North,0,0.0,0.0,37,0.00,,,0.00,WUHU21623XXSP,2013-05-11 21:08:00,
2013-05-11 16:13:00,65.1,38.0,30.12,North,0,0.0,0.0,37,0.00,,,0.00,WUHU21623XXSP,2013-05-11 21:13:00,
2013-05-11 16:18:00,64.9,37.2,30.12,North,0,0.0,0.0,36,0.00,,,0.00,WUHU21623XXSP,2013-05-11 21:18:00,
2013-05-11 16:23:00,64.8,37.7,30.12,North,0,0.0,0.0,37,0.00,,,0.00,WUHU21623XXSP,2013-05-11 21:23:00,
2013-05-11 16:28:00,65.1,38.8,30.13,North,0,0.0,0.0,38,0.00,,,0.00,WUHU21623XXSP,2013-05-11 21:28:00,
2013-05-11 16:33:00,65.1,38.0,30.12,North,0,0.0,0.0,37,0.00,,,0.00,WUHU21623XXSP,2013-05-11 21:33:00,
2013-05-11 16:38:00,65.1,38.0,30.12,North,0,0.0,0.0,37,0.00,,,0.00,WUHU21623XXSP,2013-05-11 21:38:00,
2013-05-11 16:43:00,65.1,37.3,30.12,North,0,0.0,0.0,36,0.00,,,0.00,WUHU21623XXSP,2013-05-11 21:43:00,
2013-05-11 16:48:00,65.3,38.2,30.12,North,0,0.0,0.0,37,0.00,,,0.00,WUHU21623XXSP,2013-05-11 21:48:00,
2013-05-11 16:53:00,65.5,38.4,30.12,North,0,0.0,0.0,36,0.00,,,0.00,WUHU21623XXSP,2013-05-11 21:53:00,
2013-05-11 16:58:00,65.5,37.7,30.12,North,0,0.0,0.0,36,0.00,,,0.00,WUHU21623XXSP,2013-05-11 21:58:00,
2013-05-11 17:03:00,65.5,37.7,30.13,North,0,0.0,0.0,36,0.00,,,0.00,WUHU21623XXSP,2013-05-11 22:03:00,
2013-05-11 17:08:00,65.1,37.3,30.13,North,0,0.0,0.0,36,0.00,,,0.00,WUHU21623XXSP,2013-05-11 22:08:00,
2013-05-11 17:13:00,65.1,35.9,30.13,North,0,0.0,0.0,34,0.00,,,0.00,WUHU21623XXSP,2013-05-11 22:13:00,
2013-05-11 17:18:00,64.6,35.4,30.13,North,0,0.0,0.0,34,0.00,,,0.00,WUHU21623XXSP,2013-05-11 22:18:00,
2013-05-11 17:23:00,64.2,34.4,30.13,North,0,0.0,0.0,35,0.00,,,0.00,WUHU21623XXSP,2013-05-11 22:23:00,
2013-05-11 17:28:00,64.2,35.6,30.13,North,0,0.0,0.0,35,0.00,,,0.00,WUHU21623XXSP,2013-05-11 22:28:00,
2013-05-11 17:33:00,64.2,37.2,30.13,North,0,0.0,0.0,37,0.00,,,0.00,WUHU21623XXSP,2013-05-11 22:33:00,
2013-05-11 17:38:00,64.2,36.5,30.13,North,0,0.0,0.0,36,0.00,,,0.00,WUHU21623XXSP,2013-05-11 22:38:00,
2013-05-11 17:43:00,64.2,37.2,30.13,North,0,0.0,0.0,36,0.00,,,0.00,WUHU21623XXSP,2013-05-11 22:43:00,
2013-05-11 17:48:00,64.2,36.5,30.13,North,0,0.0,0.0,36,0.00,,,0.00,WUHU21623XXSP,2013-05-11 22:48:00,
2013-05-11 17:53:00,64.2,36.5,30.14,North,0,0.0,0.0,36,0.00,,,0.00,WUHU21623XXSP,2013-05-11 22:53:00,
2013-05-11 17:58:00,64.2,36.5,30.14,North,0,0.0,0.0,36,0.00,,,0.00,WUHU21623XXSP,2013-05-11 22:58:00,
2013-05-11 18:03:00,64.2,37.2,30.14,North,0,0.0,0.0,37,0.00,,,0.00,WUHU21623XXSP,2013-05-11 23:03:00,
2013-05-11 18:08:00,64.2,36.5,30.14,North,0,0.0,0.0,36,0.00,,,0.00,WUHU21623XXSP,2013-05-11 23:08:00,
2013-05-11 18:13:00,63.9,36.9,30.14,North,0,0.0,0.0,37,0.00,,,0.00,WUHU21623XXSP,2013-05-11 23:13:00,
2013-05-11 18:18:00,64.0,37.1,30.14,North,0,0.0,0.0,37,0.00,,,0.00,WUHU21623XXSP,2013-05-11 23:18:00,
2013-05-11 18:23:00,63.7,36.8,30.14,North,0,0.0,0.0,37,0.00,,,0.00,WUHU21623XXSP,2013-05-11 23:23:00,
2013-05-11 18:28:00,63.5,36.6,30.14,North,0,0.0,0.0,37,0.00,,,0.00,WUHU21623XXSP,2013-05-11 23:28:00,
2013-05-11 18:34:00,63.3,36.4,30.14,North,0,0.0,0.0,38,0.00,,,0.00,WUHU21623XXSP,2013-05-11 23:34:00,
2013-05-11 18:39:00,63.3,37.1,30.14,North,0,0.0,0.0,38,0.00,,,0.00,WUHU21623XXSP,2013-05-11 23:39:00,
2013-05-11 18:44:00,63.1,36.3,30.14,North,0,0.0,0.0,37,0.00,,,0.00,WUHU21623XXSP,2013-05-11 23:44:00,
2013-05-11 18:49:00,62.8,35.2,30.14,North,0,0.0,0.0,36,0.00,,,0.00,WUHU21623XXSP,2013-05-11 23:49:00,
2013-05-11 18:54:00,62.4,34.9,30.14,North,0,0.0,0.0,36,0.00,,,0.00,WUHU21623XXSP,2013-05-11 23:54:00,
2013-05-11 18:59:00,61.7,34.3,30.14,North,0,0.0,0.0,36,0.00,,,0.00,WUHU21623XXSP,2013-05-11 23:59:00,
2013-05-11 19:04:00,61.5,34.8,30.14,North,0,0.0,0.0,37,0.00,,,0.00,WUHU21623XXSP,2013-05-12 00:04:00,
2013-05-11 19:09:00,61.2,33.8,30.14,North,0,0.0,0.0,36,0.00,,,0.00,WUHU21623XXSP,2013-05-12 00:09:00,
2013-05-11 19:14:00,61.0,33.6,30.14,North,0,0.0,0.0,37,0.00,,,0.00,WUHU21623XXSP,2013-05-12 00:14:00,
2013-05-11 19:19:00,60.6,34.0,30.15,North,0,0.0,0.0,37,0.00,,,0.00,WUHU21623XXSP,2013-05-12 00:19:00,
2013-05-11 19:24:00,60.4,34.0,30.15,North,0,0.0,0.0,37,0.00,,,0.00,WUHU21623XXSP,2013-05-12 00:24:00,
2013-05-11 19:29:00,59.7,33.2,30.15,North,0,0.0,0.0,37,0.00,,,0.00,WUHU21623XXSP,2013-05-12 00:29:00,
2013-05-11 19:34:00,59.2,33.4,30.15,North,0,0.0,0.0,38,0.00,,,0.00,WUHU21623XXSP,2013-05-12 00:34:00,
2013-05-11 19:39:00,58.8,33.1,30.15,North,0,0.0,0.0,38,0.00,,,0.00,WUHU21623XXSP,2013-05-12 00:39:00,
2013-05-11 19:44:00,58.6,33.7,30.15,North,0,0.0,0.0,39,0.00,,,0.00,WUHU21623XXSP,2013-05-12 00:44:00,
2013-05-11 19:49:00,58.3,33.5,30.15,North,0,0.0,0.0,39,0.00,,,0.00,WUHU21623XXSP,2013-05-12 00:49:00,
2013-05-11 19:54:00,57.9,33.0,30.16,North,0,0.0,0.0,39,0.00,,,0.00,WUHU21623XXSP,2013-05-12 00:54:00,
2013-05-11 19:59:00,57.6,32.7,30.16,North,0,0.0,0.0,39,0.00,,,0.00,WUHU21623XXSP,2013-05-12 00:59:00,
2013-05-11 20:04:00,57.4,33.2,30.16,North,0,0.0,0.0,40,0.00,,,0.00,WUHU21623XXSP,2013-05-12 01:04:00,
2013-05-11 20:09:00,57.0,32.9,30.16,North,0,0.0,0.0,40,0.00,,,0.00,WUHU21623XXSP,2013-05-12 01:09:00,
2013-05-11 20:14:00,56.5,32.4,30.17,North,0,0.0,0.0,40,0.00,,,0.00,WUHU21623XXSP,2013-05-12 01:14:00,
2013-05-11 20:19:00,56.3,32.8,30.17,North,0,0.0,0.0,41,0.00,,,0.00,WUHU21623XXSP,2013-05-12 01:19:00,
2013-05-11 20:24:00,56.1,32.7,30.17,North,0,0.0,0.0,41,0.00,,,0.00,WUHU21623XXSP,2013-05-12 01:24:00,
2013-05-11 20:29:00,55.9,32.5,30.17,North,0,0.0,0.0,41,0.00,,,0.00,WUHU21623XXSP,2013-05-12 01:29:00,
2013-05-11 20:34:00,55.4,32.6,30.17,North,0,0.0,0.0,42,0.00,,,0.00,WUHU21623XXSP,2013-05-12 01:34:00,
2013-05-11 20:39:00,55.4,32.6,30.17,North,0,0.0,0.0,42,0.00,,,0.00,WUHU21623XXSP,2013-05-12 01:39:00,
2013-05-11 20:44:00,54.9,33.2,30.17,North,0,0.0,0.0,44,0.00,,,0.00,WUHU21623XXSP,2013-05-12 01:44:00,
2013-05-11 20:49:00,54.5,32.9,30.17,North,0,0.0,0.0,44,0.00,,,0.00,WUHU21623XXSP,2013-05-12 01:49:00,
2013-05-11 20:54:00,54.3,32.7,30.17,North,0,0.0,0.0,44,0.00,,,0.00,WUHU21623XXSP,2013-05-12 01:54:00,
2013-05-11 20:59:00,54.1,32.6,30.18,North,0,0.0,0.0,44,0.00,,,0.00,WUHU21623XXSP,2013-05-12 01:59:00,
2013-05-11 21:04:00,54.1,32.6,30.18,North,0,0.0,0.0,45,0.00,,,0.00,WUHU21623XXSP,2013-05-12 02:04:00,
2013-05-11 21:09:00,54.1,33.1,30.18,North,0,0.0,0.0,45,0.00,,,0.00,WUHU21623XXSP,2013-05-12 02:09:00,
2013-05-11 21:14:00,54.1,33.1,30.18,North,0,0.0,0.0,45,0.00,,,0.00,WUHU21623XXSP,2013-05-12 02:14:00,
2013-05-11 21:19:00,53.1,33.7,30.18,North,0,0.0,0.0,46,0.00,,,0.00,WUHU21623XXSP,2013-05-12 02:19:00,
2013-05-11 21:24:00,53.1,32.7,30.18,North,0,0.0,0.0,46,0.00,,,0.00,WUHU21623XXSP,2013-05-12 02:24:00,
2013-05-11 21:29:00,52.7,32.4,30.18,North,0,0.0,0.0,46,0.00,,,0.00,WUHU21623XXSP,2013-05-12 02:29:00,
2013-05-11 21:34:00,52.3,32.1,30.19,North,0,0.0,0.0,46,0.00,,,0.00,WUHU21623XXSP,2013-05-12 02:34:00,
2013-05-11 21:39:00,52.2,33.0,30.19,North,0,0.0,0.0,48,0.00,,,0.00,WUHU21623XXSP,2013-05-12 02:39:00,
2013-05-11 21:44:00,52.2,33.0,30.19,North,0,0.0,0.0,48,0.00,,,0.00,WUHU21623XXSP,2013-05-12 02:44:00,
2013-05-11 21:49:00,52.2,33.0,30.20,North,0,0.0,0.0,48,0.00,,,0.00,WUHU21623XXSP,2013-05-12 02:49:00,
2013-05-11 21:54:00,52.2,33.0,30.19,North,0,0.0,0.0,48,0.00,,,0.00,WUHU21623XXSP,2013-05-12 02:54:00,
2013-05-11 21:59:00,51.3,33.3,30.20,North,0,0.0,0.0,50,0.00,,,0.00,WUHU21623XXSP,2013-05-12 02:59:00,
2013-05-11 22:04:00,50.9,33.3,30.20,North,0,0.0,0.0,50,0.00,,,0.00,WUHU21623XXSP,2013-05-12 03:04:00,
2013-05-11 22:09:00,50.7,33.3,30.20,North,0,0.0,0.0,51,0.00,,,0.00,WUHU21623XXSP,2013-05-12 03:09:00,
2013-05-11 22:14:00,50.7,33.3,30.20,North,0,0.0,0.0,51,0.00,,,0.00,WUHU21623XXSP,2013-05-12 03:14:00,
2013-05-11 22:19:00,50.7,33.3,30.20,North,0,0.0,0.0,51,0.00,,,0.00,WUHU21623XXSP,2013-05-12 03:19:00,
2013-05-11 22:24:00,50.2,33.3,30.20,North,0,0.0,0.0,52,0.00,,,0.00,WUHU21623XXSP,2013-05-12 03:24:00,
2013-05-11 22:29:00,50.2,33.2,30.20,North,0,0.0,0.0,52,0.00,,,0.00,WUHU21623XXSP,2013-05-12 03:29:00,
2013-05-11 22:34:00,50.2,33.2,30.21,North,0,0.0,0.0,52,0.00,,,0.00,WUHU21623XXSP,2013-05-12 03:34:00,
2013-05-11 22:39:00,49.8,32.9,30.21,North,0,0.0,0.0,52,0.00,,,0.00,WUHU21623XXSP,2013-05-12 03:39:00,
2013-05-11 22:44:00,49.6,32.7,30.21,North,0,0.0,0.0,52,0.00,,,0.00,WUHU21623XXSP,2013-05-12 03:44:00,
2013-05-11 22:49:00,49.6,32.7,30.21,North,0,0.0,0.0,52,0.00,,,0.00,WUHU21623XXSP,2013-05-12 03:49:00,
2013-05-11 22:54:00,49.3,32.8,30.21,North,0,0.0,0.0,53,0.00,,,0.00,WUHU21623XXSP,2013-05-12 03:54:00,
2013-05-11 22:59:00,49.1,32.8,30.21,North,0,0.0,0.0,53,0.00,,,0.00,WUHU21623XXSP,2013-05-12 03:59:00,
2013-05-11 23:02:00,49.1,32.6,30.21,North,0,0.0,0.0,54,0.00,,,0.00,WUHU21623XXSP,2013-05-12 04:02:00,
2013-05-11 23:04:00,48.9,33.1,30.21,North,0,0.0,0.0,54,0.00,,,0.00,WUHU21623XXSP,2013-05-12 04:04:00,
2013-05-11 23:09:00,48.7,32.3,30.21,North,0,0.0,0.0,53,0.00,,,0.00,WUHU21623XXSP,2013-05-12 04:09:00,
2013-05-11 23:12:00,48.7,32.3,30.21,North,0,0.0,0.0,53,0.00,,,0.00,WUHU21623XXSP,2013-05-12 04:12:00,
2013-05-11 23:17:00,48.7,32.3,30.21,North,0,0.0,0.0,54,0.00,,,0.00,WUHU21623XXSP,2013-05-12 04:17:00,
2013-05-11 23:22:00,48.6,32.8,30.21,North,0,0.0,0.0,54,0.00,,,0.00,WUHU21623XXSP,2013-05-12 04:22:00,
2013-05-11 23:27:00,48.6,32.6,30.21,North,0,0.0,0.0,54,0.00,,,0.00,WUHU21623XXSP,2013-05-12 04:27:00,
2013-05-11 23:32:00,48.4,32.4,30.21,North,0,0.0,0.0,54,0.00,,,0.00,WUHU21623XXSP,2013-05-12 04:32:00,
2013-05-11 23:37:00,48.4,32.4,30.21,North,0,0.0,0.0,54,0.00,,,0.00,WUHU21623XXSP,2013-05-12 04:37:00,
2013-05-11 23:42:00,48.0,32.1,30.21,North,0,0.0,0.0,55,0.00,,,0.00,WUHU21623XXSP,2013-05-12 04:42:00,
2013-05-11 23:47:00,47.8,32.4,30.21,North,0,0.0,0.0,55,0.00,,,0.00,WUHU21623XXSP,2013-05-12 04:47:00,
2013-05-11 23:52:00,47.7,32.2,30.21,North,0,0.0,0.0,55,0.00,,,0.00,WUHU21623XXSP,2013-05-12 04:52:00,
2013-05-11 23:57:00,47.5,32.5,30.21,North,0,0.0,0.0,56,0.00,,,0.00,WUHU21623XXSP,2013-05-12 04:57:00,